#timestamp,LO_Frequency,Hit,StdDev 
1569492015.2,286046994.9,N
1569492035.0,286046995.1,N
1569492035.9,286046995.1,N
1569492055.7,286046995.1,N
1569492075.6,286046996.0,N
1569492095.4,286046993.9,N
1569492115.3,286046993.9,N
1569492135.1,286046994.7,N
1569492155.0,286046994.7,N
1569492155.9,286046994.7,N
1569492175.8,286046992.0,Y
1569492195.6,286046995.6,P
1569492215.5,286046995.4,P
1569492235.3,286046994.9,P
1569492255.1,286046997.9,N
1569492275.9,286046997.2,N
1569492295.7,286046995.8,Y
1569492315.6,286046999.5,P
1569492335.4,286046997.2,N
1569492355.2,286046996.5,N
1569492375.1,286046997.7,N
1569492376.0,286046997.7,N
1569492395.8,286046997.2,N
1569492415.6,286046998.0,N
1569492435.5,286046995.0,Y
1569492455.3,286046999.4,P
1569492475.2,286046999.9,N
1569492495.0,286047000.7,N
1569492495.9,286047000.7,N
1569492515.7,286046998.9,N
1569492535.6,286046999.5,N
1569492555.4,286046996.6,Y
1569492575.3,286046998.6,P
1569492595.1,286046998.8,N
1569492615.8,286046998.4,P
1569492635.7,286047000.4,N
1569492655.5,286047000.5,N
1569492675.4,286047002.4,N
1569492695.2,286047000.4,N
1569492715.0,286047002.8,N
1569492715.9,286047002.8,N
1569492735.8,286047002.2,N
1569492755.6,286047001.9,N
1569492775.4,286047000.6,N
1569492795.3,286047000.8,N
1569492815.1,286046998.7,N
1569492835.9,286046999.3,N
1569492855.7,286046998.1,N
1569492875.5,286047000.8,N
1569492895.4,286047000.4,N
1569492915.2,286047004.3,N
1569492935.1,286047002.5,N
1569492936.0,286047002.5,N
1569492955.8,286047000.6,N
1569492975.6,286047000.0,N
1569492995.5,286047001.5,N
1569493015.3,286047002.0,N
1569493035.1,286047003.8,N
1569493055.9,286047001.8,N
1569493075.7,286047004.0,N
1569493095.6,286047004.2,N
1569493115.4,286047003.6,N
1569493135.2,286047003.0,N
1569493155.1,286047005.5,Y
1569493156.0,286047005.5,P
1569493175.8,286047003.2,N
1569493195.6,286047001.4,N
1569493215.5,286047001.3,N
1569493235.3,286047001.9,N
1569493255.2,286047001.5,N
1569493275.9,286047004.3,N
1569493295.7,286047002.5,N
1569493315.6,286047004.0,N
1569493335.4,286047003.5,N
1569493355.3,286047002.2,N
1569493375.1,286047001.6,N
1569493376.0,286047001.6,N
1569493395.8,286047002.6,N
1569493415.7,286046999.9,N
1569493435.5,286047000.4,N
1569493455.3,286047000.6,N
1569493475.2,286047001.2,N
1569493495.0,286047000.3,N
1569493495.9,286047000.3,N
1569493515.8,286046999.9,N
1569493535.6,286047002.0,N
1569493555.4,286047004.3,N
1569493575.3,286047003.1,N
1569493595.1,286047004.0,N
1569493615.9,286047003.8,N
1569493635.7,286047001.7,N
1569493655.5,286047001.4,N
1569493675.4,286047004.3,N
1569493695.2,286047003.5,N
1569493715.0,286047004.0,N
1569493715.9,286047004.0,N
1569493735.8,286047001.8,N
1569493755.6,286047004.4,Y
1569493775.5,286046998.5,P
1569493795.3,286047001.2,N
1569493815.1,286046998.5,N
1569493835.9,286046998.2,N
1569493855.7,286047000.0,N
1569493875.6,286047000.8,N
1569493895.4,286046999.4,N
1569493915.2,286046998.4,N
1569493935.1,286047001.0,N
1569493936.0,286047001.0,N
1569493955.8,286047000.6,N
1569493975.9,286046999.9,N
1569493995.7,286047002.4,N
1569494015.6,286047001.9,N
1569494035.4,286047001.9,N
1569494055.2,286047002.6,N
1569494075.1,286047004.3,N
1569494076.0,286047004.3,N
1569494095.8,286047002.6,N
1569494115.6,286047000.2,N
1569494135.5,286047000.7,N
1569494155.3,286047002.7,N
1569494175.2,286047002.4,N
1569494195.0,286047002.4,N
1569494195.9,286047002.4,N
1569494215.7,286047001.2,N
1569494235.6,286047000.3,N
1569494255.4,286047000.9,N
1569494275.3,286046999.8,N
1569494295.1,286047000.0,N
1569494296.0,286047000.0,N
1569494315.8,286047001.4,N
1569494335.7,286047001.3,N
1569494355.5,286047002.0,N
1569494375.4,286047002.4,N
1569494395.2,286047001.2,N
1569494415.0,286046998.5,N
1569494415.9,286046998.5,N
1569494435.8,286047001.1,N
1569494455.6,286047001.1,N
1569494475.4,286047000.7,N
1569494495.3,286047000.6,N
1569494515.1,286047002.6,N
1569494535.9,286047002.6,N
1569494555.7,286046999.7,N
1569494575.5,286046999.9,N
1569494595.4,286046999.7,N
1569494615.2,286047000.1,N
1569494635.1,286046998.8,N
1569494636.0,286046998.8,N
1569494655.8,286046996.6,N
1569494675.6,286046997.2,N
1569494695.5,286046997.0,N
1569494715.3,286046997.4,N
1569494735.1,286046999.5,N
1569494755.9,286046998.7,N
1569494775.7,286047000.9,N
1569494795.6,286046998.2,N
1569494815.4,286046998.8,N
1569494835.2,286046998.3,N
1569494855.1,286046998.5,N
1569494856.0,286046998.5,N
1569494875.8,286046999.9,N
1569494895.7,286046999.9,N
1569494915.5,286047002.0,N
1569494935.3,286046999.7,N
1569494955.2,286047003.9,N
1569494975.0,286047002.2,N
1569494975.9,286047002.2,N
1569494995.8,286047001.1,N
1569495015.6,286047002.8,N
1569495035.4,286047002.4,N
1569495055.3,286047002.5,N
1569495075.1,286046998.3,N
1569495095.9,286046999.4,N
1569495115.7,286046997.8,N
1569495135.5,286046998.8,N
1569495155.4,286046998.1,N
1569495175.2,286047000.9,N
1569495195.0,286047002.8,N
1569495195.9,286047002.8,N
1569495215.8,286047002.8,N
1569495235.6,286047004.0,N
1569495255.5,286047001.6,N
1569495275.3,286047000.1,N
1569495295.2,286047000.9,N
1569495315.9,286047000.7,N
1569495335.7,286046998.1,N
1569495355.6,286047000.2,N
1569495375.4,286046998.6,N
1569495395.2,286047001.2,N
1569495415.1,286046998.5,N
1569495416.0,286046998.5,N
1569495435.8,286047000.7,N
1569495455.7,286047000.4,N
1569495475.5,286047001.4,N
1569495495.3,286047003.6,N
1569495515.2,286047004.1,N
1569495535.0,286047002.2,N
1569495535.9,286047002.2,N
1569495555.8,286047003.4,N
1569495575.6,286047005.9,Y
1569495595.4,286047005.6,P
